Epoch 2025 Feb. 14.0 TT = JDT 2460720.5 T 2025 Feb. 1.69523 TT Rudenko q 0.4995033 (2000.0) P Q n 0.21437452 Peri. 65.74327 +0.56215435 +0.81752262 a 2.7649500 Node 239.04271 -0.80180459 +0.50167659 e 0.8193446 Incl. 8.38537 -0.20271131 +0.28280269 P 4.60 From 808 observations 2006 Oct. 19-2021 Jan. 18, mean residual 0".7.
H = 16.5 G = 0.15 [ ,-80] ( - 2024 Nov. 13) m1 = 15.5 + 5 log d + 16.0 log r [-80, 76] (2024 Nov. 13 - 2025 Apr. 18) H = 16.5 G = 0.15 [ 76, ] (2025 Apr. 18 - )